Location: Bakhuizen
(52.8696°N, 5.4575°E)
Time: 07:44:26
(UTC+00:00)

Cosmos 494 Rocket - Pass Details

Date: 11 May 2021
Orbit: 742 x 770 km, 74.1° (Epoch: 15 June)

Event Time Altitude Azimuth Distance (km) Brightness Sun altitude
Rises 23:10:08 0° 334° (NNW) 3,235 8.6 -18.8°
Reaches altitude 10° 23:12:32 10° 335° (NNW) 2,301 7.5 -18.8°
Maximum altitude 23:17:46 82° 63° (ENE) 768 4.0 -18.9°
Enters shadow 23:20:07 33° 149° (SSE) 1,243 4.6 -18.9°
